Regional Weather Roundup
Issued by NWS

Home | Current Version | Previous Version | Text Only | Print | Product List | Glossary Off
Versions: 1 2 3 4 5 6 7 8 9 10 11 12 13 14 15 16 17 18 19 20 21 22 23 24 25 26 27

000
ASUS42 KTBW 202010
RWRFL
FLORIDA REGIONAL WEATHER ROUNDUP
NATIONAL WEATHER SERVICE TAMPA BAY RUSKIN FL
400 PM EDT SUN APR 20 2014

NOTE: "FAIR" INDICATES FEW OR NO CLOUDS BELOW 12,000 FEET WITH NO
SIGNIFICANT WEATHER AND/OR OBSTRUCTIONS TO VISIBILITY.


FLZ001>010-012>015-112-114-115-202100-
PANHANDLE FLORIDA

CITY           SKY/WX    TMP DP  RH WIND       PRES   REMARKS
PENSACOLA      CLOUDY    65  52  62 N10       30.15F
PENSACOLA NAS  CLOUDY    66  53  63 N13       30.15F
MILTON NAS     CLOUDY    63  51  65 VRB6      30.16F
CRESTVIEW      CLOUDY    63  52  67 N8        30.17F
DUKE FIELD     CLOUDY    62  51  69 N9        30.15F
VALPARAISO     CLOUDY    62  53  72 NE7       30.15F
MARY ESTHER    CLOUDY    63  49  59 NE10      30.14F
PANAMA CITY    CLOUDY    60  52  74 N13       30.14F
TYNDALL AFB    CLOUDY    61  54  76 NE10      30.14F
APALACHICOLA   CLOUDY    66  54  65 N10       30.12F

STATION/POSITION SKY/WX   TEMP    WIND        PRES    WAVE   SWELL
                          AIR SEA DIR/SP/G            HT/PER HT/PER
                          (F)     (DEG/KT/KT) (MB)    (FT/S) (FT/S)
30.1N   87.6W              62 66   60/ 14/ 16 1021.1F   2/ 4
29.2N   88.2W              63 71   40/ 10/ 14 1021.6S
28.8N   86.0W              62 68   20/ 10/ 14 1020.5F   3/ 4   2/ 5
PANAMA CITY BEAC           60 67   30/ 10/ 15 1020.6F
CAPE SAN BLAS    NOT AVBL
TOWER C                    61     360/ 11/ 12 1019.4F
28.5N   84.5W              63 68   10/ 12/ 16 1019.0F   3/ 5

$$
FLZ011-016>038-118-127-128-134-139-239-202100-
NORTH FLORIDA

CITY           SKY/WX    TMP DP  RH WIND       PRES   REMARKS
MARIANNA       CLOUDY    60  53  77 NE10      30.16S
TALLAHASSEE    CLOUDY    61  50  67 N7        30.14S
PERRY          CLOUDY    61  54  77 NE9G17    30.12R
CROSS CITY       N/A     67  56  67 E7        30.08S
GAINESVILLE    CLOUDY    64  56  75 N7        30.07F
MAYPORT NAS    CLOUDY    63  54  72 N10       30.08F
JACKSONVILLE   PTSUNNY   59  55  87 NW13      30.09F
JAX NAS        CLOUDY    63  53  70 N14       30.09F
JAX CRAIG      CLOUDY    64  54  69 NW13G18   30.08F
JAX CECIL      CLOUDY    63  55  77 N14       30.09F
FERNANDINA BEA CLOUDY    61  54  77 NW10      30.08S
ST AUGUSTINE   CLOUDY    66  56  70 N14       30.07F

STATION/POSITION SKY/WX   TEMP    WIND        PRES    WAVE   SWELL
                          AIR SEA DIR/SP/G            HT/PER HT/PER
                          (F)     (DEG/KT/KT) (MB)    (FT/S) (FT/S)
SHELL POINT                62      30/  5/ 12 1019.2R
KEATON BEACH               62      10/  8/ 11 1019.5S
CEDAR KEY                  65      40/  7/  9 1018.6F
FERNANDINA                 58 64  320/  9/ 12 1018.5F
30.7N   81.3W                 64                N/A     5/ 8   2/11
MAYPORT                    59 65  350/ 12/ 15   N/A
31.4N   80.9W              61 63   10/ 16/ 17 1017.9F   5/ 6   3/12
ST AUGUSTINE               60     360/ 19/ 21 1018.2F

$$
FLZ040-043>046-052-053-057-058-063-144-202100-
INTERIOR CENTRAL FLORIDA

CITY           SKY/WX    TMP DP  RH WIND       PRES   REMARKS
OCALA          CLOUDY    66  54  63 N14       30.08S
THE VILLAGES     N/A     66  57  72 N9        30.06S
LEESBURG       CLOUDY    68  57  68 N8        30.06S
SANFORD        CLOUDY    67  58  72 N8        30.04F
ORLANDO EXEC   PTSUNNY   70  56  61 N9        30.05S
ORLANDO INTL   CLOUDY    70  56  61 NW10      30.04S
KISSIMMEE      CLOUDY    70  59  68 N9        30.05S
WINTER HAVEN   CLOUDY    72  58  61 N7        30.05F
LAKELAND       PTSUNNY   72  57  60 N5        30.04F
OKEECHOBEE     CLOUDY    70  59  68 N6        30.04S

$$
FLZ041-047-054-059-064-141-147-202100-
EAST CENTRAL FLORIDA

CITY           SKY/WX    TMP DP  RH WIND       PRES   REMARKS
DAYTONA BEACH  PTSUNNY   67  56  67 N17G23    30.04F
DELAND         CLOUDY    66  55  68 NW9       30.05F
NEW SMYRNA BEA MOSUNNY   68  57  68 N21G32    30.05F
JFK SPACE CTR  PTSUNNY   69  59  70 N10G17    30.03F
TITUSVILLE     CLOUDY    68  57  68 NW12      30.04F
CAPE CANAVERAL MOSUNNY   69  57  65 N17       30.02F
PATRICK AFB    CLOUDY    70  58  66 N15       30.03S
MELBOURNE      PTSUNNY   70  59  68 N13G22    30.02F
VERO BEACH     CLOUDY    72  61  68 N12       30.02F
FT PIERCE      CLOUDY    71  59  65 NW8       30.02F
STUART         CLOUDY    68  63  83 N12G17    30.03S

STATION/POSITION SKY/WX   TEMP    WIND        PRES    WAVE   SWELL
                          AIR SEA DIR/SP/G            HT/PER HT/PER
                          (F)     (DEG/KT/KT) (MB)    (FT/S) (FT/S)
28.5N   80.2W              65 71  320/ 19/ 23 1016.5F
28.9N   78.5W              74 76  320/ 12/ 16 1013.7F   7/ 8   7/ 8
TRIDENT PIER               69 74  350/ 14/ 19 1016.1F
28.4N   80.5W                 73                N/A     3/10   2/11
27.6N   80.2W                 74                N/A     5/ 7   2/11

$$
FLZ050-056-061-142-242-148-248-149-249-151-251-155-255-
160-260-202100-
WEST CENTRAL FLORIDA

CITY           SKY/WX    TMP DP  RH WIND       PRES   REMARKS
CRYSTAL RIVER  CLOUDY    68  55  64 NE8       30.06F
INVERNESS      CLOUDY    68  55  64 N6        30.06F
BROOKSVILLE    CLOUDY    69  59  70 NW8       30.06S
CLEARWATER     PTSUNNY   72  59  63 NW14      30.05F
TAMPA INTL     PTSUNNY   71  59  65 W10       30.05F
TAMPA EXEC     CLOUDY    75  59  57 N5        30.05S
PLANT CITY     CLOUDY    73  59  60 N5        30.06S
MACDILL AFB    PTSUNNY   73  64  72 W10       30.05S
PETER O KNIGHT CLOUDY    73  61  64 W9        30.05S
ST PETERSBURG  CLOUDY    71  60  68 NW9       30.03F
SARASOTA       CLOUDY    72  60  66 NW16      30.03F
VENICE         MOCLDY    73  61  64 NW14      30.04F

STATION/POSITION SKY/WX   TEMP    WIND        PRES    WAVE   SWELL
                          AIR SEA DIR/SP/G            HT/PER HT/PER
                          (F)     (DEG/KT/KT) (MB)    (FT/S) (FT/S)
CEDAR KEY                  65      40/  7/  9 1018.6F
28.5N   84.5W              63 68   10/ 12/ 16 1019.0F   3/ 5
27.3N   84.3W                 72                N/A     4/ 6
CLEARWATER BEACH           65 71  330/ 14/ 17 1017.6F
MIDDLE TAMPA BAY           68     300/ 10/ 14 1017.9F
VENICE                     69 74  320/ 14/ 16 1016.6F

$$
FLZ066-069-070-075>078-162-262-165-265-202100-
SOUTHWEST FLORIDA AND KEYS

CITY           SKY/WX    TMP DP  RH WIND       PRES   REMARKS
PUNTA GORDA    PTSUNNY   77  60  55 NW8       30.04F
FT MYERS       CLOUDY    77  58  51 VRB6      30.01F
SOUTHWEST INTL CLOUDY    75  58  55 NE8       30.01F
NAPLES         MOSUNNY   75  60  59 NW13      30.01F
MARATHON       MOSUNNY   79  60  52 W9G18     30.02F
KEY WEST NAS   PTSUNNY   77  60  55 NW13      30.03F
KEY WEST INTL  MOSUNNY   76  63  64 NW13G20   30.03F

STATION/POSITION SKY/WX   TEMP    WIND        PRES    WAVE   SWELL
                          AIR SEA DIR/SP/G            HT/PER HT/PER
                          (F)     (DEG/KT/KT) (MB)    (FT/S) (FT/S)
VENICE                     69 74  320/ 14/ 16 1016.6F
NAPLES                     71 77  300/ 12/ 14 1016.8F
26.0N   85.6W              70 80   20/ 14/ 17 1018.5F   3/ 5   2/ 7
DRY TORTUGAS     NOT AVBL
NW FL BAY                  74     320/ 12/ 15 1017.3F
SOMBRERO KEY               73     320/ 15/ 16 1017.1F
LONG KEY                   74 80  310/ 12/ 14 1017.2F
MOLASSES REEF              75 78  280/ 13/ 14 1015.8F

$$
FLZ067-068-071>074-168-172>174-202100-
SOUTHEAST FLORIDA

CITY           SKY/WX    TMP DP  RH WIND       PRES   REMARKS
W PALM BEACH   CLOUDY    75  61  61 N7        29.99F
FT LAUDER-EXEC MOSUNNY   76  59  55 N6        30.00F
FT LAUDERDALE  PTSUNNY   77  58  51 NW8       29.99F
POMPANO BEACH  PTSUNNY   77  59  53 NW12      30.00F
PEMBROKE PINES PTSUNNY   78  58  49 W9        30.01F
OPA LOCKA      MOSUNNY   78  57  48 N8        30.00F
MIAMI          PTSUNNY   78  57  48 N7        30.01F
WEST KENDALL   MOSUNNY   78  57  48 N14       30.00F
HOMESTEAD      MOSUNNY   78  60  54 NW10      30.00F

STATION/POSITION SKY/WX   TEMP    WIND        PRES    WAVE   SWELL
                          AIR SEA DIR/SP/G            HT/PER HT/PER
                          (F)     (DEG/KT/KT) (MB)    (FT/S) (FT/S)
PORT EVERGLADES            74     310/  7/ 10 1015.7
VIRGINIA KEY               77 79  320/  3/  8 1016.0F
LAKE WORTH                 71 76   20/  8/  9 1015.5F
FOWEY ROCKS                74 78  330/  9/ 10 1015.9F
SETTLEMENT POINT           72     310/ 20/ 22 1015.5F

$$




USA.gov is the U.S. government's official web portal to all federal, state and local government web resources and services.